Welcome to the New NWS' Forecast!
Most changes are behind the scenes, but click here for differences you might notice.
Latest weather observations around

Auburn-Opelika Airport (KAUO)

Using English Units (Switch to International System of Units)
Date/ Time (CST) Wind (mph) Vis. (mi) Weather Sky Cond. Temp (°F) Rel. Humidity Wind Chill (°F) Heat Index (°F) Pressure Precip. (in)
Air Dwpt 6 hour Altimeter (inHg) Sea level (inHg) 1 hr 3 hr 6 hr
Max Min
Nov 18 01:56 ESE 6 10 Mostly Clear FEW028 51 40     65%     30.04 30.1      
Nov 18 00:56 SE 6 10 Clear CLR 52 38     59%     30.04 30.11      
Nov 17 23:56 SE 8 10 Clear CLR 52 39     61%     30.05 30.11      
Nov 17 22:56 ESE 5 10 Clear CLR 54 39     57%     30.08 30.14      
Nov 17 21:56 SE 5 10 Clear CLR 53 40     61%     30.08 30.15      
Nov 17 20:56 SSE 7 10 Clear CLR 55 39     55%     30.1 30.16      
Nov 17 19:56 SE 5 10 Clear CLR 53 38     56%     30.1 30.18      
Nov 17 18:56 Calm 10 Clear CLR 51 39     63%     30.11 30.18      
Nov 17 17:56 SE 3 10 Clear CLR 57 36     45%     30.09 30.17      
Notice The following observation data may not be complete
Nov 17 16:56 Calm 10 Clear CLR   37      %     30.09 30.17      
Nov 17 15:56 SE 6 10 Clear CLR 65 37     36%     30.08 30.15      
Nov 17 14:56   10 Clear CLR 67 36     32%     30.09 30.16      
Nov 17 13:56 SSE 5 10 Clear CLR 67 37     33%     30.1 30.17      
Nov 17 12:56 S 5 10 Clear CLR 66 35     32%     30.11 30.18      
Nov 17 10:56 WNW 5 10 Clear CLR 61 39     44%     30.17 30.24      
Nov 17 09:56 NE 3 10 Clear CLR 58 41     53%     30.2 30.27      
Nov 17 07:56 NNE 7 10 Clear CLR 49 42     77% 46   30.2 30.28      
Nov 17 06:56 NNE 7 10 Clear CLR 44 39     82% 40   30.18 30.27      
Nov 17 05:56 NNE 6 10 Clear CLR 42 38     85% 38   30.17 30.25      
Nov 17 04:56 NNE 5 10 Clear CLR 43 38     82% 40   30.15 30.23      
Nov 17 03:56 NE 8 10 Clear CLR 44 39     82% 40   30.14 30.21      
Nov 17 02:56 NNE 8 10 Clear CLR 45 41     86% 41   30.14 30.21      
Nov 17 01:56 NNE 5 10 Clear CLR 44 42     93% 41   30.14 30.21      
Nov 17 00:56 N 5 6 Fog/Mist CLR 45 45     100% 43   30.15 30.22      
Nov 16 23:56 N 5 8 Clear CLR 47 46     97% 45   30.15 30.22      
Nov 16 22:56 NNE 5 10 Clear CLR 49 47     93% 47   30.15 30.22      
Nov 16 21:56 NW 6 10 Clear CLR 51 49     92%     30.15 30.22      
Nov 16 20:56 NNW 3 10 Clear CLR 52 50     93%     30.14 30.21      
Nov 16 19:56 NNW 3 10 Clear CLR 53 50     89%     30.13 30.21      
Nov 16 18:56 NW 5 10 Clear CLR 54 50     86%     30.13 30.21      
Nov 16 17:56 NW 3 10 Clear CLR 58 51     78%     30.12 30.19      
Nov 16 16:56 WNW 3 10 Clear CLR 60 51     72%     30.12 30.19      
Nov 16 15:56 NW 7 10 Clear CLR 64 51     63%     30.11 30.17      
Nov 16 14:56 WNW 8 10 Clear CLR 65 51     61%     30.1 30.17      
Nov 16 13:56 WNW 10 10 Partly Cloudy SCT031 66 52     61%     30.1 30.17      
Nov 16 12:56 NW 11 10 Partly Cloudy SCT029 64 51     63%     30.11 30.18      
Nov 16 11:56 NNW 11 10 Cloudy OVC027 63 52     67%     30.13 30.2      
Nov 16 10:56 NNW 9 10 Mostly Cloudy BKN025 64 52     65%     30.16 30.23      
Nov 16 10:25 NNW 6 10 Mostly Cloudy BKN023 63 52     68%     30.18        
Nov 16 10:16 NNW 8 10 Partly Cloudy SCT021 63 52     68%     30.18        
Nov 16 09:56 N 8 10 Mostly Cloudy BKN021 60 50     69%     30.18 30.25      
Nov 16 09:49 NNW 10 10 Mostly Cloudy BKN023 61 50     68%     30.18        
Nov 16 08:56   10 Clear CLR 59 49     69%     30.18 30.25      
Nov 16 07:56 NW 6 10 Clear CLR 53 49     86%     30.18 30.26      
Nov 16 06:56 NW 5 10 Clear CLR 47 45     93% 45   30.17 30.24      
Nov 16 05:56 NW 5 10 Clear CLR 46 44     93% 44   30.15 30.23      
Nov 16 04:56 NW 3 10 Mostly Clear FEW065 47 45     93% 46   30.13 30.21      
Nov 16 03:56 NW 6 10 Cloudy OVC065 47 45     93% 44   30.12 30.19      
Nov 16 02:56 Calm 10 Clear CLR 46 44     93%     30.12 30.19      
Nov 16 01:56 Calm 10 Clear CLR 46 44     93%     30.12 30.19      
Nov 16 00:56 Calm 10 Partly Cloudy SCT060 50 45     83%     30.12 30.19      
Nov 15 23:56 Calm 10 Cloudy BKN065 OVC080 48 45     89%     30.13 30.21      
Nov 15 22:56 Calm 10 Partly Cloudy SCT120 48 46     93%     30.14 30.21      
Nov 15 21:56 Calm 10 Cloudy OVC080 49 46     90%     30.14 30.22      
Nov 15 20:56 Calm 10 Mostly Clear FEW070 47 44     90%     30.14 30.22      
Nov 15 19:56 Calm 10 Clear CLR 48 45     89%     30.14 30.21      
Nov 15 18:56 Calm 10 Clear CLR 49 45     86%     30.13 30.21      
Nov 15 17:56 Calm 10 Clear CLR 51 45     79%     30.13 30.2      
Nov 15 16:56 Calm 10 Clear CLR 56 44     64%     30.11 30.19      
Nov 15 15:56 Calm 10 Clear CLR 60 42     51%     30.11 30.19      
Nov 15 14:56 Calm 10 Clear CLR 60 42     51%     30.1 30.17      
Nov 15 13:56 3 10 Clear CLR 59 42     53%     30.12        
Nov 15 12:56   10 Clear CLR 59 43     55%     30.12 30.19      
Nov 15 11:56 3 10 Clear CLR 56 42     60%     30.14 30.21      
Nov 15 10:56 E 9 10 Clear CLR 55 41     59%     30.18 30.26      
Nov 15 09:56 E 10 10 Clear CLR 52 40     63%     30.21 30.29      
Nov 15 08:56 ESE 7 10 Clear CLR 50 39     66% 47   30.22 30.29      
Nov 15 07:56 E 11 10 Clear CLR 47 39     74% 42   30.21 30.29      
Nov 15 06:56 ENE 6 10 Clear CLR 44 39     82% 41   30.21 30.29      
Nov 15 05:56 ENE 5 10 Clear CLR 43 39     86% 40   30.19 30.27      
Nov 15 04:56 ENE 8 10 Clear CLR 44 40     85% 40   30.18 30.26      
Nov 15 03:56 ENE 6 10 Clear CLR 44 40     85% 41   30.18 30.26      
Nov 15 02:56 E 5 10 Clear CLR 45 41     86% 43   30.18 30.25      
Notice The following observation data may not be complete
Jun 12 07:35   10 Mostly Cloudy BKN004          %              
Jun 11 03:56 ESE 7 10 Clear CLR 71 65     81%   72 30.11 30.13      
Jun 08 23:56 Calm 10 Clear   68 61     78%     29.92 29.96      
Jun 08 19:56 Calm 10 Mostly Cloudy BKN050 BKN065 76 61     60%   76 29.89 29.92      
Jun 08 14:56 Calm 10 Mostly Cloudy SCT055 BKN075 78 57     48%   78 29.89 29.93      
Jun 08 06:56 ENE 9 10 Clear CLR 66 58     75%     29.9 29.94      
Jun 08 01:56 E 6 10 Cloudy BKN020 BKN026 OVC036 68 65     90%     29.86 29.89      
Jun 07 11:56 NE 13 10 Cloudy OVC021 76 67     74%   77 29.81 29.84      
Jun 06 10:52 NE 6 10 Mostly Cloudy BKN014 BKN039 77 72     83%   78 29.8        
Jun 06 10:19 N 5 10 Mostly Cloudy SCT011 BKN016 BKN024 75 72     89%   77 29.82        
Jun 06 04:38 SSE 3 10 Cloudy SCT002 OVC100 70 70     100%     29.82        
Jun 05 22:56 SE 5 10 Light Rain SCT026 BKN036 OVC085 73 72     96%   75 29.86 29.89 0    
Jun 05 16:56 SW 8 10 Partly Cloudy FEW019 SCT075 SCT100 79 71     77%   82 29.83 29.86